Regional Weather Roundup
Issued by NWS Northern Indiana

Home | Current Version | Previous Version | Graphics & Text | Print | Product List | Glossary On
Versions: 1 2 3 4 5 6 7 8 9 10 11 12 13 14 15 16 17 18 19 20 21 22 23 24 25 26 27 28 29 30 31 32 33 34 35 36 37 38 39 40 41 42 43 44 45 46 47 48 49 50
000
ASUS43 KIWX 281200
RWRIWX

KIWX WEATHER ROUNDUP
NATIONAL WEATHER SERVICE NORTHERN INDIANA
700 AM EST SUN DEC 28 2014

NOTE: "FAIR" INDICATES FEW OR NO CLOUDS BELOW 12,000 FEET WITH NO
SIGNIFICANT WEATHER AND/OR OBSTRUCTIONS TO VISIBILITY.

* THESE STATIONS ARE NOT UNDER NWS QUALITY CONTROL. THEY ALSO MAY NOT
  REPORT WEATHER SUCH AS PRECIPITATION OR FOG.

INZ001>027-281300-
NORTHERN INDIANA

CITY           SKY/WX    TMP DP  RH WIND       PRES   REMARKS
GARY*          CLOUDY    32  21  64 W9        30.15S WCI  24
SOUTH BEND     CLOUDY    32  25  75 NW9       30.13R WCI  24
6HR MIN TEMP:  32; 6HR MAX TEMP:  35;

GOSHEN         CLOUDY    33  25  72 NW10      30.10R WCI  25
6HR MIN TEMP:  33; 6HR MAX TEMP:  35;

ANGOLA*        CLOUDY    34  28  80 NW5       30.07S WCI  30
FORT WAYNE     CLOUDY    33  29  85 W8        30.11S WCI  26
6HR MIN TEMP:  33; 6HR MAX TEMP:  34;

PERU/GRISSOM   CLOUDY    31  31 100 W9        30.12S WCI  23
6HR MIN TEMP:  31; 6HR MAX TEMP:  32;


$$
INZ028>050-281300-
CENTRAL INDIANA

CITY           SKY/WX    TMP DP  RH WIND       PRES   REMARKS
LAFAYETTE      CLOUDY    29  25  85 NW8       30.17R WCI  21
6HR MIN TEMP:  28; 6HR MAX TEMP:  31;

KOKOMO*        CLOUDY    30  25  80 W9        30.13S WCI  22
6HR MIN TEMP:  30; 6HR MAX TEMP:  32;

MUNCIE*        CLOUDY    32  28  85 W7        30.11S WCI  26
6HR MIN TEMP:  32; 6HR MAX TEMP:  34; 6HR PCP: TRACE;

INDIANAPOLIS   CLOUDY    30  26  85 NW8       30.14S WCI  22
6HR MIN TEMP:  30; 6HR MAX TEMP:  33; 6HR PCP: TRACE;


$$
MIZ043>046-050>051-056>058-064>065-071>073-077>080-281300-
SOUTHWEST LOWER MICHIGAN

CITY           SKY/WX    TMP DP  RH WIND       PRES   REMARKS
BATTLE CREEK   CLOUDY    34  26  72 W12       30.08R WCI  25
6HR MIN TEMP:  34; 6HR MAX TEMP:  35;

BENTON HARBOR  CLOUDY    31  23  72 W8        30.13R WCI  23
6HR MIN TEMP:  31; 6HR MAX TEMP:  35;

COLDWATER*     CLOUDY    33  29  86 W9        30.08R WCI  25
6HR MIN TEMP:  33; 6HR MAX TEMP:  34;

HILLSDALE*     CLOUDY    34  32  92 W6        30.06R WCI  28
HOLLAND        MOCLDY    33  23  66 W6        30.11R WCI  28
6HR MIN TEMP:  33; 6HR MAX TEMP:  37; 6HR PCP: TRACE;

GRAND RAPIDS   CLOUDY    31  25  78 W9        30.07R WCI  23
6HR MIN TEMP:  31; 6HR MAX TEMP:  35; 6HR PCP:  0.01;

KALAMAZOO      CLOUDY    33  25  72 NW13      30.10R WCI  24
6HR MIN TEMP:  33; 6HR MAX TEMP:  36;

STURGIS*       CLOUDY    34  27  75 W6        30.09R WCI  29
THREE RIVERS*  CLOUDY    33  26  76 NW9       30.10S WCI  25

$$
OHZ001>008-015>018-024>025-281300-
NORTHWEST OHIO

CITY           SKY/WX    TMP DP  RH WIND       PRES   REMARKS
DEFIANCE       CLOUDY    35  29  78 W7        30.09R WCI  29
6HR MIN TEMP:  35; 6HR MAX TEMP:  36;

FINDLAY        MOCLDY    34  30  85 W8        30.08R WCI  27
6HR MIN TEMP:  34; 6HR MAX TEMP:  36; 6HR PCP: TRACE;

TOLEDO EXPRESS CLOUDY    34  30  85 W8        30.08R WCI  27
6HR MIN TEMP:  33; 6HR MAX TEMP:  36;

TOLEDO METCALF CLOUDY    36  30  79 W8        30.08R
6HR MIN TEMP:  35; 6HR MAX TEMP:  37;

LIMA           CLOUDY    35  30  82 W8        30.09R WCI  29
6HR MIN TEMP:  35; 6HR MAX TEMP:  38; 6HR PCP: TRACE;


$$
AND FOR LAKE MICHIGAN COASTAL AND OPEN LAKE BUOY OBSERVATIONS

STATION/POSITION TEMP    WIND        PRES    VSBY  WAVE
                 AIR SEA DIR/SP/G                  HT/PER
                 (F)     (DEG/KT/KT) (MB)    (MI)  (FT/S)
CALUMET HARBOR    28     260/  5/  9 1019.5R
MICHIGAN CITY     31     270/ 13/ 16   N/A
SAINT JOSEPH      33     270/  8/ 14 1020.0F

$$
&&


USA.gov is the U.S. government's official web portal to all federal, state and local government web resources and services.